Location: Berkeley
(37.8716°N, 122.2727°W)
Time: 13:43:20
(UTC-07:00)

Tiangong 2 - Visible Passes

Search period start: 22 August 2017 00:00
Search period end: 01 September 2017 00:00
Orbit: 390 x 395 km, 42.8° (Epoch: 22 August)

Date Brightness Start Highest point End Pass type
(mag) Time Alt. Az. Time Alt. Az. Time Alt. Az.
22 Aug 1.9 05:12:59 25° WNW 05:14:27 43° NNW 05:17:34 10° ENE visible
23 Aug 2.9 04:18:32 33° NE 04:18:32 33° NE 04:20:31 10° ENE visible
23 Aug 2.6 05:51:37 10° WNW 05:54:34 32° N 05:57:31 10° ENE visible
24 Aug 2.4 04:56:27 28° NW 04:57:21 34° N 05:00:21 10° ENE visible
25 Aug 3.9 04:02:01 20° NE 04:02:01 20° NE 04:03:14 10° ENE visible
25 Aug 2.6 05:34:30 10° WNW 05:37:29 34° N 05:40:27 10° ENE visible
26 Aug 2.5 04:40:01 31° N 04:40:14 32° N 04:43:11 10° ENE visible
27 Aug 4.6 03:45:40 12° ENE 03:45:40 12° ENE 03:45:58 10° ENE visible
27 Aug 2.2 05:18:04 16° NW 05:20:19 42° NNE 05:23:24 10° E visible
28 Aug 3.0 04:23:50 30° NE 04:23:50 30° NE 04:26:04 10° ENE visible
28 Aug 1.1 05:56:58 10° WNW 06:00:12 83° SSW 06:03:24 10° ESE visible
29 Aug 1.5 05:02:08 40° NW 05:03:03 63° NNE 05:06:14 10° ESE visible
30 Aug 4.1 04:08:13 15° E 04:08:13 15° E 04:08:56 10° E visible
30 Aug 1.5 05:40:38 17° W 05:42:45 42° SSW 05:45:49 10° SE visible
31 Aug 2.4 04:46:56 33° SE 04:46:56 33° SE 04:48:52 10° ESE visible
